Theta_e
316 314 313 306 304 306 309 310 308 305 304 308 313 320 322 323 323 323 322 321 321 320 320 319 319 317 316 318 324 326 323 323 322 320 320 320 320 321 323 322 322 323 324 325 326
317 315 314 312 304 307 310 309 307 305 305 304 311 318 320 322 323 323 322 320 321 321 320 319 319 317 317 319 324 325 324 324 320 318 320 320 320 321 323 322 323 323 325 324 325
317 315 314 314 309 306 310 307 305 305 305 305 304 314 318 320 320 320 318 320 321 321 321 320 319 317 317 318 321 324 326 323 324 324 325 322 322 323 322 322 323 323 323 326 326
314 316 315 313 312 306 310 305 306 307 307 306 306 304 309 317 313 313 314 315 317 318 322 321 320 316 316 318 319 320 320 323 324 325 326 324 325 323 323 323 324 323 324 323 324
314 315 315 314 314 310 308 306 308 309 309 307 307 308 306 308 309 313 313 313 316 319 320 320 320 317 316 315 316 317 318 320 320 320 321 323 323 324 324 326 326 325 325 324 324
315 313 315 314 314 313 306 309 308 311 310 308 307 309 308 305 307 307 313 311 318 320 319 320 319 318 317 317 316 316 316 316 317 317 318 319 320 321 323 324 325 325 325 324 324
312 314 314 314 314 314 310 308 309 312 311 310 308 307 308 309 309 308 309 313 312 317 318 318 320 317 317 317 316 317 317 315 315 317 316 318 319 319 320 321 323 323 324 324 324
314 314 314 314 314 315 311 306 312 312 311 311 310 309 309 310 310 309 309 309 310 312 315 314 316 316 314 314 314 317 315 317 314 315 316 318 319 317 320 319 321 321 323 323 322
311 314 314 313 314 315 312 305 311 311 307 309 311 311 310 310 309 309 309 311 312 313 314 313 313 312 312 314 313 314 314 315 316 315 316 317 319 319 320 319 320 322 323 323 323
307 311 314 313 313 314 311 308 310 309 307 310 312 311 311 310 309 309 308 310 312 312 312 311 311 310 311 313 311 311 313 313 315 315 313 314 315 315 316 317 317 319 321 323 323
304 309 312 312 314 314 310 310 309 308 308 312 312 311 310 310 309 310 309 309 311 311 310 311 310 312 311 309 310 312 313 312 312 312 312 313 313 313 313 315 316 317 319 319 321
303 304 310 313 314 314 310 309 308 308 309 309 312 311 311 310 311 310 309 310 310 310 309 310 311 309 308 308 311 311 313 313 311 311 312 312 313 312 312 312 314 315 317 319 321
303 303 307 312 315 314 313 309 308 308 307 308 309 311 311 311 311 311 310 310 309 309 309 310 309 309 310 310 310 310 311 311 310 310 310 311 311 308 309 310 311 312 313 316 319
302 303 305 309 314 313 312 309 309 308 303 308 309 310 311 311 310 311 310 310 309 309 308 309 309 310 309 310 309 311 309 310 311 311 311 310 313 310 310 309 308 310 314 316 318
302 302 302 306 310 313 312 310 309 307 303 307 309 310 311 310 311 311 311 310 311 310 309 310 310 310 311 310 309 310 310 310 311 312 311 311 311 308 309 309 310 311 314 316 317
301 302 303 305 309 313 311 310 308 302 308 311 308 310 312 311 312 310 311 311 311 312 311 310 309 309 309 309 309 310 311 311 312 314 316 311 311 311 309 308 309 311 314 317 319
303 302 304 306 312 313 312 308 310 310 307 310 310 309 310 311 312 311 312 313 313 314 313 311 311 310 310 311 309 309 312 312 312 314 312 309 311 311 308 308 309 309 313 316 318
303 303 305 306 312 311 309 308 307 308 308 310 308 308 309 309 309 311 312 312 311 312 310 310 306 310 310 310 309 309 310 309 309 312 311 310 312 310 309 309 310 310 312 314 317
303 304 305 306 310 310 308 310 307 307 309 310 309 308 309 309 310 310 311 311 310 311 313 310 307 306 307 309 309 311 311 309 311 309 311 313 310 309 308 308 308 310 311 310 311
305 304 306 307 309 308 308 309 307 308 309 309 309 309 310 311 310 312 311 307 309 308 308 306 303 306 308 308 309 311 310 313 312 313 312 310 309 310 309 309 308 308 309 313 315
305 304 307 307 307 307 309 310 307 310 309 309 308 309 310 311 311 311 309 307 307 307 307 306 307 307 310 311 311 312 311 312 311 311 308 308 308 308 311 312 313 310 308 310 313
304 306 308 309 306 304 310 310 310 310 310 310 309 310 310 311 311 311 308 308 307 307 309 308 310 310 308 309 310 310 311 311 313 309 309 307 309 311 310 311 312 311 311 312 314
304 306 307 307 306 307 309 310 309 310 310 309 310 310 310 312 314 312 310 308 307 307 308 308 311 309 307 312 310 311 311 311 311 312 310 307 308 307 308 309 312 313 313 313 313
303 307 307 305 306 309 310 310 310 310 309 310 310 310 311 313 312 312 312 311 308 308 309 309 312 311 313 313 313 313 312 310 311 313 311 309 308 307 308 311 311 314 315 313 311
304 304 305 306 305 310 310 310 310 311 310 310 311 310 311 314 311 313 312 310 310 310 311 311 314 313 313 313 313 313 314 312 312 311 310 310 310 310 310 311 311 313 315 313 311
306 307 307 306 308 309 310 308 310 311 310 311 311 310 309 313 313 312 311 311 311 311 311 312 315 314 314 314 315 315 314 314 312 312 310 310 310 310 312 312 311 312 314 314 311
305 306 305 306 309 310 310 310 310 310 311 310 310 311 311 311 311 311 311 310 310 312 314 314 313 315 317 316 317 321 316 316 313 312 311 311 311 310 311 313 313 312 313 314 312
Wind_Speed
18 18 19 16 12 11 11 11 11 11 9 9 9 10 14 17 16 15 15 8 7 9 10 7 6 6 5 4 6 5 2 6 6 7 5 1 1 4 4 6 4 4 4 2 5
19 17 19 17 15 11 11 10 9 9 8 8 8 11 11 15 11 18 18 16 15 11 10 6 6 4 3 3 6 5 4 6 5 5 3 4 4 5 5 9 5 5 5 6 9
20 18 17 18 15 13 10 9 7 7 7 6 8 10 13 13 12 17 18 19 16 15 14 11 7 3 2 3 5 4 7 4 4 7 9 5 7 8 3 5 14 5 6 1 10
23 20 19 17 16 13 11 9 6 5 5 5 7 9 10 9 6 4 5 6 11 21 18 15 7 2 2 4 6 3 7 6 6 14 10 3 6 7 10 13 15 10 12 11 7
22 22 19 19 18 14 12 10 7 5 4 5 6 6 6 7 11 9 8 3 3 15 21 12 10 5 4 2 2 3 3 7 7 11 14 16 15 13 18 25 26 26 25 20 18
23 24 22 18 18 15 13 11 8 7 6 5 6 6 6 3 8 14 13 5 7 11 19 13 5 8 3 3 2 3 7 9 10 9 11 8 14 13 21 19 22 20 25 25 23
24 24 23 21 20 17 14 13 9 8 7 6 6 6 9 15 8 8 18 14 5 9 9 11 11 5 3 2 3 6 5 6 8 10 7 8 15 19 29 32 33 37 34 30 27
17 25 25 23 22 18 13 13 11 9 8 6 7 7 8 7 8 15 9 13 14 9 8 6 5 8 4 6 3 3 2 2 5 6 8 12 19 11 15 32 30 38 35 34 32
25 18 25 24 22 18 13 13 13 11 8 6 8 8 9 7 8 8 16 10 10 11 9 5 7 5 3 2 4 5 5 5 5 3 4 10 5 3 7 17 22 27 30 34 34
26 20 23 26 24 21 14 14 12 9 8 7 11 5 10 3 3 2 8 14 8 10 7 7 6 3 3 6 5 5 5 4 5 3 4 9 14 14 25 26 22 26 26 27 31
26 26 19 30 25 24 22 19 6 5 16 10 7 7 1 3 5 1 6 16 12 7 5 4 3 8 12 9 9 3 3 6 4 8 7 11 16 17 18 19 20 24 26 32 33
25 26 26 28 25 29 29 20 15 5 4 26 15 14 6 7 2 5 9 9 7 5 4 0 10 8 7 5 7 8 14 17 12 10 10 13 25 18 17 19 23 24 31 31 35
23 22 23 24 23 34 31 27 17 9 1 5 23 23 16 13 5 8 13 7 3 5 7 8 4 5 9 7 7 8 13 14 14 6 13 12 27 20 21 29 35 37 37 38 36
24 20 20 20 22 38 34 28 17 8 3 4 5 5 14 11 6 22 20 9 3 10 5 8 12 12 6 4 8 16 8 13 12 5 7 4 12 9 4 11 14 26 28 33 36
26 24 22 20 19 39 35 31 18 9 2 3 4 6 11 16 3 5 19 11 6 7 6 6 4 5 13 16 6 5 7 9 8 7 8 12 5 5 4 11 11 9 25 32 38
27 24 19 23 25 39 35 30 22 5 7 6 4 6 7 6 2 4 9 9 2 7 11 13 5 4 6 4 12 1 7 5 6 5 10 11 12 23 10 10 9 11 24 31 31
28 22 19 19 24 36 36 35 5 4 1 7 5 6 8 6 4 5 6 7 5 4 6 3 8 6 5 6 6 9 3 3 5 7 9 7 10 23 5 7 8 10 21 28 31
22 17 18 20 26 42 46 5 4 6 5 7 6 8 6 7 5 4 6 7 12 4 0 3 5 10 9 16 5 13 12 5 5 4 4 5 10 15 12 21 31 31 32 24 16
14 11 17 18 37 41 32 5 7 7 8 11 12 7 7 5 3 6 8 7 9 15 7 5 5 4 7 6 10 5 12 13 8 7 5 5 8 11 11 16 15 14 23 27 28
6 6 12 19 37 49 10 6 4 4 7 8 5 5 6 8 9 9 8 4 6 10 8 4 5 8 1 4 10 12 4 5 6 6 7 6 7 11 14 12 15 20 17 22 17
5 2 5 27 39 24 5 4 4 6 11 5 5 5 4 6 8 5 4 4 7 6 17 4 5 2 5 10 12 7 9 7 4 4 5 3 7 5 7 2 12 14 21 25 27
3 2 12 44 6 3 4 7 5 5 3 3 3 4 5 6 7 8 8 6 12 10 10 9 3 6 11 12 14 15 15 19 5 5 4 3 14 5 7 8 12 12 13 15 21
6 3 18 39 5 5 6 4 4 4 3 3 3 3 3 6 3 8 4 7 15 11 12 10 4 5 7 1 5 7 12 14 16 3 14 6 11 7 9 7 12 8 4 13 20
4 1 7 12 3 7 7 5 5 5 4 4 3 4 3 5 8 3 5 3 12 14 11 15 5 8 11 19 11 7 13 17 16 7 13 18 19 17 15 15 6 4 8 14 20
4 1 3 6 2 7 4 6 5 5 2 8 5 9 8 4 5 7 11 9 6 8 7 7 7 9 21 26 27 24 12 18 19 26 10 17 18 12 9 10 2 6 14 17 21
1 3 4 9 11 11 5 6 13 4 8 6 7 6 9 6 6 4 4 4 5 4 8 6 4 5 19 20 19 19 16 17 22 20 22 19 18 12 13 6 6 10 19 19 22
8 4 1 12 6 6 6 7 7 7 9 7 9 9 10 14 20 23 16 9 8 3 5 3 3 3 11 10 11 5 8 15 14 14 18 15 19 15 15 16 8 9 21 22 25
Wind_Direction
299 309 318 299 283 280 285 291 291 286 277 269 245 234 232 245 236 240 242 240 248 248 255 268 279 273 272 211 192 164 124 232 231 159 236 352 313 224 310 281 278 230 213 223 190
287 296 305 310 288 273 280 287 285 286 278 265 256 220 248 247 230 251 247 249 251 248 247 256 274 281 227 192 185 172 199 235 198 192 261 277 292 328 333 333 325 256 243 254 210
278 283 292 306 293 274 275 276 269 276 281 266 246 231 232 247 269 270 259 249 231 229 240 250 261 268 233 203 198 190 235 258 264 302 309 286 293 281 263 275 270 290 308 271 193
276 271 283 291 296 276 270 262 254 259 268 259 246 236 226 227 225 189 193 184 223 225 228 233 240 188 193 219 217 210 236 234 277 279 292 274 296 298 275 259 268 259 301 291 257
270 270 267 280 291 280 260 253 245 247 263 259 249 242 216 220 238 187 173 165 177 198 206 213 209 171 197 238 318 212 240 262 277 287 282 278 264 264 261 268 268 265 278 275 268
266 260 259 265 274 278 263 247 237 250 246 255 256 247 225 228 243 213 200 152 112 172 194 207 206 211 241 241 199 304 289 274 287 269 272 264 263 260 262 265 266 261 267 269 271
263 259 253 257 262 266 259 245 231 241 248 247 258 251 245 254 255 235 212 221 184 174 187 214 221 205 157 239 296 281 296 291 227 237 243 260 261 236 253 255 256 263 264 270 265
302 251 248 247 249 254 256 238 225 231 239 241 256 268 254 253 237 236 206 216 225 200 190 157 189 204 228 291 327 328 284 298 305 227 235 187 258 294 277 236 238 248 251 255 257
290 276 239 241 245 246 243 229 226 232 225 224 247 252 264 254 241 229 222 194 193 198 195 195 194 200 185 225 276 228 253 214 318 211 254 201 296 285 290 257 243 247 253 251 248
295 297 244 231 238 233 221 207 216 223 212 209 228 266 250 239 205 220 207 203 172 187 180 191 191 151 154 204 224 204 231 222 210 297 348 277 274 280 291 297 280 274 265 261 256
304 286 311 224 230 222 199 188 177 218 205 198 210 210 191 153 165 209 191 174 171 162 172 173 181 210 215 215 243 302 268 269 305 297 320 266 276 274 274 269 269 273 269 265 261
302 278 287 223 221 217 204 186 196 150 194 225 220 233 186 129 135 188 171 160 160 178 122 106 245 224 217 206 218 238 264 271 275 252 263 282 277 274 267 260 252 252 261 260 262
299 289 280 238 226 215 203 203 189 189 123 246 229 230 223 237 238 199 187 183 150 147 190 208 198 197 195 212 227 240 244 262 262 295 276 289 283 271 256 245 244 245 243 253 253
300 293 270 267 243 195 192 189 162 165 50 221 204 230 205 219 270 224 203 166 172 195 192 248 250 253 213 212 193 256 205 236 253 251 258 155 287 250 284 274 240 246 231 236 245
300 296 280 272 283 191 188 192 178 170 5 150 155 161 168 167 129 186 201 203 192 184 158 226 192 216 235 238 196 247 188 210 226 237 271 237 274 300 223 266 259 242 238 239 241
293 287 271 266 259 188 188 166 147 66 240 162 131 173 158 194 148 104 180 198 208 234 231 244 191 174 201 232 216 232 246 283 261 250 246 227 208 277 248 245 234 237 243 241 239
301 272 250 232 211 187 173 151 115 186 98 167 171 173 189 163 188 154 177 187 179 202 219 240 234 209 196 240 206 199 178 263 240 214 250 170 202 241 245 279 256 258 252 254 244
290 265 231 234 202 175 154 156 147 162 182 131 134 152 174 170 214 201 185 217 214 203 358 232 305 196 198 214 200 193 194 195 217 216 275 162 227 246 226 237 261 250 254 262 258
278 228 230 254 181 185 161 175 179 180 159 149 144 161 195 188 183 173 223 240 222 187 209 201 260 211 198 183 192 169 211 218 282 266 280 244 284 296 259 254 266 253 253 254 253
227 210 252 214 177 158 159 172 141 146 120 146 139 172 168 174 178 188 182 220 220 181 191 231 284 226 196 171 234 229 128 197 198 229 233 234 252 250 306 283 267 257 242 242 239
174 162 242 173 175 166 186 153 145 155 133 147 165 151 172 161 179 184 224 259 195 184 182 175 184 290 125 209 190 190 220 224 243 204 210 275 255 226 177 299 337 291 255 234 218
156 206 167 162 142 199 171 150 116 141 106 112 117 100 158 176 184 207 221 237 182 143 180 211 233 242 236 233 213 222 227 218 237 208 223 206 261 165 181 48 3 328 278 213 199
320 271 174 166 156 163 160 116 119 126 151 137 102 90 170 177 205 216 202 240 183 168 173 168 227 295 299 205 185 222 217 219 223 285 227 215 257 217 255 343 15 21 80 140 157
280 251 81 158 338 133 148 144 107 126 132 114 121 149 162 207 212 272 230 263 205 203 182 164 211 223 260 272 270 231 218 211 211 231 232 228 259 262 305 309 335 92 151 149 161
192 236 202 173 218 154 158 127 124 156 96 157 196 209 223 237 224 232 238 260 260 232 190 188 250 230 253 264 270 260 233 206 206 230 223 250 249 275 273 301 258 215 163 158 164
247 235 145 155 148 171 165 184 184 146 162 206 224 179 220 224 223 183 249 201 251 97 161 214 280 273 278 271 278 278 224 206 211 226 237 253 271 291 294 290 329 232 178 169 172
325 289 353 158 157 162 179 166 184 162 210 195 202 230 223 229 235 246 258 265 249 277 201 203 251 289 284 328 306 288 208 203 211 217 219 224 248 269 291 290 305 223 182 183 175